• In Hungary
  • List of Countries
  • For 7 days
  • Water Temperature
  • Satellite Maps
  • Weather Map
  • News
  • Weather Widgets
  • user-avatar
    Login

    Hourly Weather Prohres

    Today, 23 October, Tuesday

    Time Temperature Precipitation Wind Pressure Humidity
    00:00 +9°C° 0 mm 2 mps 758 mmHg 73%
    01:00 +9°C° 0 mm 2 mps 758 mmHg 73%
    02:00 +8°C° 0 mm 2 mps 758 mmHg 73%
    03:00 +8°C° 0 mm 2 mps 758 mmHg 72%
    04:00 +8°C° 0 mm 2 mps 758 mmHg 71%
    05:00 +8°C° 0 mm 2 mps 758 mmHg 70%
    06:00 +8°C° 0 mm 3 mps 758 mmHg 66%
    07:00 +9°C° 0 mm 3 mps 758 mmHg 62%
    08:00 +10°C° 0 mm 3 mps 758 mmHg 57%
    09:00 +11°C° 0 mm 3 mps 757 mmHg 53%
    10:00 +12°C° 0 mm 4 mps 757 mmHg 48%
    11:00 +14°C° 0 mm 4 mps 757 mmHg 43%
    12:00 +14°C° 0 mm 4 mps 756 mmHg 42%
    13:00 +15°C° 0 mm 5 mps 756 mmHg 41%
    14:00 +15°C° 0 mm 5 mps 755 mmHg 40%
    15:00 +14°C° 0 mm 4 mps 754 mmHg 42%
    16:00 +13°C° 0 mm 4 mps 754 mmHg 44%
    17:00 +12°C° 0 mm 4 mps 753 mmHg 46%
    18:00 +12°C° 0 mm 4 mps 753 mmHg 47%
    19:00 +11°C° 0 mm 4 mps 753 mmHg 49%
    20:00 +11°C° 0 mm 4 mps 752 mmHg 51%
    21:00 +11°C° 0 mm 4 mps 752 mmHg 53%
    22:00 +10°C° 0 mm 5 mps 751 mmHg 55%
    23:00 +10°C° 0 mm 5 mps 750 mmHg 56%

    Tomorrow, 24 October, Wednesday

    Time Temperature Precipitation Wind Pressure Humidity
    00:00 +10°C° 0 mm 6 mps 749 mmHg 59%
    01:00 +10°C° 0 mm 7 mps 748 mmHg 61%
    02:00 +10°C° 0 mm 7 mps 747 mmHg 63%
    03:00 +10°C° 0.1 mm 8 mps 746 mmHg 66%
    04:00 +11°C° 0.1 mm 8 mps 745 mmHg 69%
    05:00 +11°C° 0.1 mm 9 mps 744 mmHg 72%
    06:00 +11°C° 0.3 mm 9 mps 744 mmHg 72%
    07:00 +11°C° 0.3 mm 9 mps 743 mmHg 72%
    08:00 +11°C° 0.3 mm 9 mps 742 mmHg 71%
    09:00 +11°C° 0.3 mm 9 mps 742 mmHg 68%
    10:00 +12°C° 0.3 mm 9 mps 741 mmHg 65%
    11:00 +12°C° 0.3 mm 9 mps 740 mmHg 62%
    12:00 +13°C° 0 mm 9 mps 740 mmHg 58%
    13:00 +13°C° 0 mm 9 mps 739 mmHg 55%
    14:00 +15°C° 0 mm 9 mps 738 mmHg 52%
    15:00 +13°C° 0.6 mm 8 mps 738 mmHg 61%
    16:00 +11°C° 0.6 mm 7 mps 737 mmHg 69%
    17:00 +10°C° 0.6 mm 7 mps 737 mmHg 77%
    18:00 +9°C° 1 mm 6 mps 737 mmHg 78%
    19:00 +8°C° 1 mm 5 mps 737 mmHg 78%
    20:00 +8°C° 1 mm 4 mps 737 mmHg 79%
    21:00 +8°C° 0 mm 4 mps 738 mmHg 76%
    22:00 +8°C° 0 mm 4 mps 738 mmHg 74%
    23:00 +8°C° 0 mm 4 mps 738 mmHg 72%

    Day after tomorrow, 25 October, Thursday

    Time Temperature Precipitation Wind Pressure Humidity
    00:00 +7°C° 0 mm 4 mps 739 mmHg 72%
    01:00 +7°C° 0 mm 4 mps 739 mmHg 73%
    02:00 +6°C° 0 mm 5 mps 739 mmHg 73%
    03:00 +6°C° 0 mm 5 mps 739 mmHg 74%
    04:00 +5°C° 0 mm 5 mps 740 mmHg 75%
    05:00 +3°C° 0 mm 5 mps 740 mmHg 76%
    06:00 +5°C° 0 mm 5 mps 740 mmHg 73%
    07:00 +4°C° 0 mm 6 mps 741 mmHg 71%
    08:00 +4°C° 0 mm 6 mps 741 mmHg 68%
    09:00 +5°C° 0 mm 7 mps 742 mmHg 66%
    10:00 +6°C° 0 mm 7 mps 742 mmHg 65%
    11:00 +6°C° 0 mm 8 mps 742 mmHg 63%
    12:00 +7°C° 0 mm 8 mps 742 mmHg 61%
    13:00 +7°C° 0 mm 8 mps 743 mmHg 58%
    14:00 +8°C° 0 mm 7 mps 743 mmHg 56%
    15:00 +8°C° 0 mm 7 mps 744 mmHg 58%
    16:00 +6°C° 0 mm 7 mps 745 mmHg 61%
    17:00 +6°C° 0 mm 7 mps 745 mmHg 63%
    18:00 +7°C° 0 mm 6 mps 746 mmHg 63%
    19:00 +5°C° 0 mm 6 mps 746 mmHg 63%
    20:00 +5°C° 0 mm 6 mps 747 mmHg 62%
    21:00 +6°C° 0 mm 5 mps 747 mmHg 63%
    22:00 +5°C° 0 mm 4 mps 747 mmHg 64%
    23:00 +5°C° 0 mm 4 mps 747 mmHg 64%

    26 October, Friday

    Time Temperature Precipitation Wind Pressure Humidity
    00:00 +5°C° 0 mm 4 mps 747 mmHg 64%
    01:00 +5°C° 0 mm 4 mps 747 mmHg 65%
    02:00 +5°C° 0 mm 5 mps 747 mmHg 65%
    03:00 +5°C° 0.3 mm 5 mps 747 mmHg 66%
    04:00 +5°C° 0.3 mm 5 mps 746 mmHg 67%
    05:00 +5°C° 0.3 mm 5 mps 746 mmHg 68%
    06:00 +5°C° 0.4 mm 4 mps 746 mmHg 69%
    07:00 +5°C° 0.4 mm 4 mps 746 mmHg 71%
    08:00 +6°C° 0.4 mm 4 mps 746 mmHg 72%
    09:00 +7°C° 0 mm 4 mps 746 mmHg 69%
    10:00 +7°C° 0 mm 5 mps 747 mmHg 65%
    11:00 +8°C° 0 mm 5 mps 747 mmHg 62%
    12:00 +8°C° 0 mm 6 mps 748 mmHg 61%
    13:00 +9°C° 0 mm 6 mps 749 mmHg 60%
    14:00 +9°C° 0 mm 7 mps 749 mmHg 59%
    15:00 +8°C° 0 mm 7 mps 750 mmHg 62%
    16:00 +7°C° 0 mm 6 mps 751 mmHg 64%
    17:00 +7°C° 0 mm 6 mps 752 mmHg 66%
    18:00 +6°C° 0 mm 5 mps 753 mmHg 67%
    19:00 +6°C° 0 mm 4 mps 754 mmHg 68%
    20:00 +5°C° 0 mm 4 mps 755 mmHg 70%
    21:00 +5°C° 0 mm 4 mps 755 mmHg 70%
    22:00 +5°C° 0 mm 4 mps 756 mmHg 71%
    23:00 +5°C° 0 mm 4 mps 756 mmHg 71%

    27 October, Saturday

    Time Temperature Precipitation Wind Pressure Humidity
    00:00 +5°C° 0 mm 4 mps 757 mmHg 73%
    01:00 +5°C° 0 mm 4 mps 757 mmHg 75%
    02:00 +5°C° 0 mm 3 mps 757 mmHg 77%
    03:00 +4°C° 0 mm 3 mps 758 mmHg 79%
    04:00 +4°C° 0 mm 3 mps 758 mmHg 80%
    05:00 +4°C° 0 mm 3 mps 758 mmHg 81%
    06:00 +5°C° 0 mm 3 mps 758 mmHg 78%
    07:00 +7°C° 0 mm 3 mps 758 mmHg 74%
    08:00 +7°C° 0 mm 4 mps 758 mmHg 71%
    09:00 +8°C° 0 mm 4 mps 758 mmHg 67%
    10:00 +10°C° 0 mm 5 mps 757 mmHg 63%
    11:00 +11°C° 0 mm 6 mps 757 mmHg 58%
    12:00 +14°C° 0 mm 6 mps 757 mmHg 57%
    13:00 +15°C° 0 mm 6 mps 756 mmHg 57%
    14:00 +17°C° 0 mm 6 mps 756 mmHg 56%
    15:00 +16°C° 0 mm 6 mps 755 mmHg 59%
    16:00 +15°C° 0 mm 6 mps 755 mmHg 63%
    17:00 +14°C° 0 mm 5 mps 755 mmHg 66%
    18:00 +14°C° 0 mm 6 mps 755 mmHg 70%
    19:00 +14°C° 0 mm 7 mps 755 mmHg 74%
    20:00 +14°C° 0 mm 7 mps 755 mmHg 78%
    21:00 +14°C° 0 mm 7 mps 755 mmHg 80%
    22:00 +14°C° 0 mm 7 mps 755 mmHg 81%
    23:00 +12°C° 0 mm 7 mps 755 mmHg 82%

    28 October, Sunday

    Time Temperature Precipitation Wind Pressure Humidity
    00:00 +12°C° 0 mm 7 mps 755 mmHg 82%
    01:00 +12°C° 0 mm 7 mps 755 mmHg 81%
    02:00 +12°C° 0 mm 7 mps 755 mmHg 80%
    03:00 +13°C° 0 mm 6 mps 755 mmHg 79%
    04:00 +13°C° 0 mm 6 mps 755 mmHg 79%
    05:00 +13°C° 0 mm 6 mps 756 mmHg 79%
    06:00 +13°C° 0 mm 6 mps 756 mmHg 77%
    07:00 +14°C° 0 mm 7 mps 756 mmHg 76%
    08:00 +14°C° 0 mm 7 mps 756 mmHg 74%
    09:00 +16°C° 0 mm 7 mps 756 mmHg 69%
    10:00 +18°C° 0 mm 7 mps 756 mmHg 65%
    11:00 +20°C° 0 mm 7 mps 756 mmHg 60%
    12:00 +21°C° 0 mm 7 mps 756 mmHg 58%
    13:00 +22°C° 0 mm 7 mps 756 mmHg 57%
    14:00 +22°C° 0 mm 7 mps 756 mmHg 55%
    15:00 +21°C° 0 mm 6 mps 756 mmHg 60%
    16:00 +20°C° 0 mm 6 mps 756 mmHg 64%
    17:00 +19°C° 0 mm 5 mps 756 mmHg 69%
    18:00 +17°C° 0 mm 5 mps 756 mmHg 72%
    19:00 +16°C° 0 mm 5 mps 757 mmHg 75%
    20:00 +15°C° 0 mm 5 mps 757 mmHg 78%
    21:00 +15°C° 0 mm 5 mps 757 mmHg 79%
    22:00 +14°C° 0 mm 4 mps 757 mmHg 80%
    23:00 +14°C° 0 mm 4 mps 757 mmHg 81%

    29 October, Monday

    Time Temperature Precipitation Wind Pressure Humidity
    00:00 +14°C° 0 mm 4 mps 757 mmHg 79%
    01:00 +13°C° 0 mm 4 mps 758 mmHg 78%
    02:00 +13°C° 0 mm 4 mps 758 mmHg 77%
    03:00 +13°C° 0 mm 4 mps 757 mmHg 74%
    04:00 +13°C° 0 mm 4 mps 757 mmHg 72%
    05:00 +12°C° 0 mm 4 mps 757 mmHg 70%
    06:00 +13°C° 0 mm 4 mps 757 mmHg 67%
    07:00 +14°C° 0 mm 5 mps 757 mmHg 64%
    08:00 +14°C° 0 mm 5 mps 757 mmHg 61%
    09:00 +16°C° 0 mm 5 mps 757 mmHg 56%
    10:00 +19°C° 0 mm 6 mps 757 mmHg 50%
    11:00 +21°C° 0 mm 6 mps 757 mmHg 44%
    12:00 +21°C° 0 mm 6 mps 757 mmHg 42%
    13:00 +22°C° 0 mm 7 mps 756 mmHg 39%
    14:00 +23°C° 0 mm 7 mps 756 mmHg 36%
    15:00 +21°C° 0 mm 6 mps 756 mmHg 40%
    16:00 +20°C° 0 mm 6 mps 756 mmHg 44%
    17:00 +17°C° 0 mm 5 mps 755 mmHg 47%
    18:00 +16°C° 0 mm 5 mps 755 mmHg 49%
    19:00 +15°C° 0 mm 5 mps 755 mmHg 51%
    20:00 +14°C° 0 mm 5 mps 755 mmHg 53%
    21:00 +14°C° 0 mm 5 mps 755 mmHg 55%
    22:00 +14°C° 0 mm 5 mps 756 mmHg 56%
    23:00 +13°C° 0 mm 5 mps 756 mmHg 58%
    Show more